| time (UTC) | temp C | wind direction | speed KPH | gust KPH | rain 1hr cm | rain 24hr cm | rain mn cm | humidity % | barometer mb |
| 20260507004449 | 15 | 149 | 8.0 | 80.5 | 12.50 | 2.39 | 0.00 | 60 | 997.5 |
| 20260507004049 | 15 | 134 | 9.7 | 80.5 | 12.50 | 2.39 | 0.00 | 60 | 997.4 |
| 20260507003649 | 15 | 132 | 12.9 | 80.5 | 12.50 | 2.41 | 0.00 | 60 | 997.4 |
| 20260507003249 | 15 | 121 | 16.1 | 80.5 | 12.50 | 2.41 | 0.00 | 60 | 997.4 |
| 20260507002849 | 15 | 177 | 9.7 | 80.5 | 12.50 | 2.39 | 0.00 | 60 | 997.4 |
| 20260507002449 | 15 | 161 | 12.9 | 80.5 | 12.50 | 2.39 | 0.00 | 59 | 997.4 |
| 20260507002050 | 15 | 172 | 14.5 | 80.5 | 12.50 | 2.39 | 0.00 | 59 | 997.4 |
| 20260507001649 | 13 | 173 | 8.0 | 80.5 | 12.50 | 2.39 | 0.00 | 59 | 997.4 |
| 20260507001249 | 15 | 139 | 9.7 | 80.5 | 12.50 | 2.39 | 0.00 | 59 | 997.3 |
| 20260507000849 | 15 | 115 | 14.5 | 80.5 | 12.50 | 2.41 | 0.00 | 59 | 997.3 |
| 20260507000450 | 15 | 149 | 9.7 | 80.5 | 12.50 | 2.41 | 0.00 | 59 | 997.3 |
| 20260507000050 | 15 | 139 | 14.5 | 80.5 | 12.50 | 2.41 | 0.00 | 59 | 997.3 |
| 20260506235649 | 15 | 145 | 12.9 | 80.5 | 12.50 | 2.41 | 0.00 | 59 | 997.3 |
| 20260506235249 | 15 | 183 | 6.4 | 80.5 | 12.50 | 2.41 | 0.00 | 59 | 997.3 |
| 20260506234849 | 15 | 189 | 9.7 | 80.5 | 12.50 | 2.44 | 0.00 | 59 | 997.3 |
| 20260506234449 | 15 | 173 | 14.5 | 80.5 | 12.50 | 2.44 | 0.00 | 59 | 997.4 |
| 20260506234049 | 15 | 151 | 12.9 | 80.5 | 12.50 | 2.46 | 0.00 | 59 | 997.4 |
| 20260506233649 | 15 | 156 | 11.3 | 80.5 | 12.50 | 2.46 | 0.00 | 59 | 997.4 |
| 20260506233249 | 15 | 161 | 9.7 | 80.5 | 12.50 | 2.49 | 0.00 | 59 | 997.4 |
| 20260506232849 | 16 | 95 | 12.9 | 80.5 | 12.50 | 2.51 | 0.00 | 59 | 997.3 |
| 20260506232449 | 15 | 88 | 9.7 | 80.5 | 12.50 | 2.51 | 0.00 | 59 | 997.3 |
| 20260506232049 | 16 | 179 | 9.7 | 80.5 | 12.50 | 2.51 | 0.00 | 59 | 997.3 |
| 20260506231649 | 16 | 189 | 11.3 | 80.5 | 12.50 | 2.49 | 0.00 | 59 | 997.3 |
| 20260506231249 | 16 | 179 | 14.5 | 80.5 | 12.50 | 2.49 | 0.00 | 59 | 997.3 |
| 20260506230849 | 16 | 201 | 14.5 | 80.5 | 12.50 | 2.46 | 0.00 | 59 | 997.3 |
| 20260506230449 | 15 | 162 | 14.5 | 80.5 | 12.50 | 2.46 | 0.00 | 59 | 997.3 |
| 20260506230049 | 16 | 161 | 12.9 | 80.5 | 12.50 | 2.46 | 0.00 | 58 | 997.3 |
| 20260506225649 | 16 | 189 | 11.3 | 80.5 | 12.50 | 2.46 | 0.00 | 58 | 997.3 |
| 20260506224849 | 15 | 138 | 14.5 | 80.5 | 12.50 | 2.46 | 0.00 | 58 | 997.3 |
| 20260506224449 | 15 | 172 | 11.3 | 80.5 | 12.50 | 2.44 | 0.00 | 58 | 997.3 |
| 20260506224049 | 16 | 218 | 8.0 | 80.5 | 12.50 | 2.46 | 0.00 | 58 | 997.3 |
| 20260506223249 | 16 | 144 | 6.4 | 80.5 | 12.50 | 2.41 | 0.00 | 58 | 997.4 |
| 20260506222849 | 15 | 161 | 8.0 | 80.5 | 12.50 | 2.36 | 0.00 | 57 | 997.4 |
| 20260506222449 | 15 | 149 | 6.4 | 80.5 | 12.50 | 2.36 | 0.00 | 57 | 997.3 |
| 20260506222049 | 15 | 207 | 8.0 | 80.5 | 12.50 | 2.36 | 0.00 | 57 | 997.3 |
| 20260506221649 | 15 | 179 | 6.4 | 80.5 | 12.50 | 2.36 | 0.00 | 57 | 997.3 |
| 20260506221249 | 15 | 161 | 8.0 | 80.5 | 12.50 | 2.39 | 0.00 | 57 | 997.3 |
| 20260506220849 | 15 | 144 | 4.8 | 80.5 | 12.50 | 2.39 | 0.00 | 57 | 997.4 |
| 20260506220449 | 15 | 117 | 6.4 | 80.5 | 12.50 | 2.39 | 0.00 | 57 | 997.4 |
| 20260506215649 | 15 | 168 | 6.4 | 80.5 | 12.50 | 2.39 | 0.00 | 57 | 997.3 |
| 20260506215249 | 15 | 162 | 4.8 | 80.5 | 12.60 | 2.36 | 0.00 | 56 | 997.3 |
| 20260506214850 | 15 | 190 | 6.4 | 80.5 | 12.60 | 2.36 | 0.00 | 56 | 997.3 |
| 20260506214449 | 15 | 151 | 6.4 | 80.5 | 12.60 | 2.41 | 0.00 | 56 | 997.4 |
| 20260506214049 | 16 | 161 | 12.9 | 80.5 | 12.60 | 2.46 | 0.00 | 56 | 997.4 |
| 20260506213649 | 16 | 184 | 11.3 | 80.5 | 12.60 | 2.46 | 0.00 | 56 | 997.4 |
| 20260506213249 | 16 | 168 | 6.4 | 80.5 | 12.60 | 2.46 | 0.00 | 56 | 997.4 |
| 20260506212849 | 16 | 128 | 9.7 | 80.5 | 12.60 | 2.46 | 0.00 | 56 | 997.4 |
| 20260506212449 | 16 | 144 | 11.3 | 80.5 | 12.60 | 2.46 | 0.00 | 56 | 997.4 |
| 20260506212049 | 16 | 168 | 6.4 | 80.5 | 12.60 | 2.44 | 0.00 | 56 | 997.4 |
| 20260506211649 | 16 | 134 | 11.3 | 80.5 | 12.60 | 2.44 | 0.00 | 56 | 997.4 |
| 20260506211249 | 16 | 168 | 8.0 | 80.5 | 12.60 | 2.44 | 0.00 | 56 | 997.4 |
| 20260506210849 | 16 | 161 | 4.8 | 80.5 | 12.60 | 2.44 | 0.00 | 55 | 997.4 |
| 20260506210449 | 16 | 155 | 6.4 | 80.5 | 12.60 | 2.46 | 0.00 | 55 | 997.4 |
| 20260506210049 | 16 | 134 | 9.7 | 80.5 | 12.60 | 2.49 | 0.00 | 55 | 997.4 |
| 20260506205649 | 16 | 156 | 9.7 | 80.5 | 12.60 | 2.51 | 0.00 | 55 | 997.4 |
| 20260506205249 | 16 | 168 | 11.3 | 80.5 | 12.60 | 2.49 | 0.00 | 55 | 997.3 |
| 20260506204849 | 16 | 162 | 9.7 | 80.5 | 12.60 | 2.49 | 0.00 | 55 | 997.3 |
| 20260506204449 | 16 | 151 | 8.0 | 80.5 | 12.60 | 2.51 | 0.00 | 55 | 997.2 |
| 20260506204049 | 16 | 117 | 11.3 | 80.5 | 12.60 | 2.49 | 0.00 | 54 | 997.2 |
| 20260506203649 | 16 | 161 | 14.5 | 80.5 | 12.60 | 2.49 | 0.00 | 54 | 997.2 |
| 20260506203249 | 16 | 177 | 8.0 | 80.5 | 12.60 | 2.46 | 0.00 | 54 | 997.2 |
| 20260506202849 | 16 | 168 | 6.4 | 80.5 | 12.60 | 2.41 | 0.00 | 54 | 997.3 |
| 20260506202449 | 16 | 145 | 6.4 | 80.5 | 12.60 | 2.41 | 0.00 | 53 | 997.3 |
| 20260506202049 | 16 | 127 | 6.4 | 80.5 | 12.60 | 2.44 | 0.00 | 53 | 997.3 |
| 20260506201649 | 16 | 145 | 8.0 | 80.5 | 12.60 | 2.46 | 0.00 | 53 | 997.4 |
| 20260506201249 | 16 | 156 | 6.4 | 80.5 | 12.60 | 2.46 | 0.00 | 53 | 997.4 |
| 20260506200849 | 16 | 166 | 9.7 | 80.5 | 12.60 | 2.46 | 0.00 | 53 | 997.4 |
| 20260506200449 | 17 | 138 | 6.4 | 80.5 | 12.60 | 2.46 | 0.00 | 53 | 997.4 |
| 20260506200049 | 16 | 139 | 12.9 | 80.5 | 12.60 | 2.46 | 0.00 | 52 | 997.4 |
| 20260506195649 | 16 | 123 | 8.0 | 80.5 | 12.60 | 2.49 | 0.00 | 52 | 997.3 |
| 20260506194849 | 17 | 138 | 9.7 | 80.5 | 12.60 | 2.49 | 0.00 | 52 | 997.4 |
| 20260506194449 | 17 | 155 | 4.8 | 80.5 | 12.60 | 2.49 | 0.00 | 51 | 997.4 |
| 20260506194049 | 17 | 138 | 6.4 | 80.5 | 12.60 | 2.46 | 0.00 | 51 | 997.4 |
| 20260506193649 | 17 | 145 | 4.8 | 80.5 | 12.60 | 2.46 | 0.00 | 51 | 997.4 |
| 20260506193249 | 17 | 134 | 4.8 | 80.5 | 12.60 | 2.46 | 0.00 | 51 | 997.4 |
| 20260506192849 | 17 | 156 | 6.4 | 80.5 | 12.60 | 2.49 | 0.00 | 51 | 997.4 |
| 20260506192449 | 16 | 138 | 6.4 | 80.5 | 12.60 | 2.49 | 0.00 | 51 | 997.3 |
| 20260506192049 | 16 | 144 | 6.4 | 80.5 | 12.60 | 2.51 | 0.00 | 50 | 997.3 |
| 20260506191649 | 17 | 151 | 6.4 | 80.5 | 12.60 | 2.51 | 0.00 | 50 | 997.3 |
| 20260506191249 | 17 | 134 | 4.8 | 80.5 | 12.60 | 2.54 | 0.00 | 50 | 997.3 |
| 20260506190849 | 17 | 149 | 6.4 | 80.5 | 12.60 | 2.57 | 0.00 | 50 | 997.3 |
| 20260506190449 | 17 | 190 | 6.4 | 80.5 | 12.60 | 2.59 | 0.00 | 50 | 997.3 |
| 20260506190049 | 17 | 189 | 9.7 | 80.5 | 12.60 | 2.59 | 0.00 | 50 | 997.3 |
| 20260506185649 | 17 | 110 | 9.7 | 80.5 | 12.60 | 2.59 | 0.00 | 49 | 997.3 |
| 20260506185249 | 17 | 111 | 8.0 | 80.5 | 12.60 | 2.59 | 0.00 | 49 | 997.2 |
| 20260506184849 | 17 | 138 | 8.0 | 80.5 | 12.60 | 2.62 | 0.00 | 49 | 997.2 |
| 20260506184449 | 17 | 144 | 9.7 | 80.5 | 12.60 | 2.64 | 0.00 | 48 | 997.1 |
| 20260506184049 | 17 | 145 | 8.0 | 80.5 | 12.60 | 2.67 | 0.00 | 48 | 997.1 |
| 20260506183649 | 17 | 151 | 6.4 | 80.5 | 12.60 | 2.64 | 0.00 | 48 | 997.0 |
| 20260506183249 | 17 | 149 | 8.0 | 80.5 | 12.60 | 2.67 | 0.00 | 48 | 997.0 |
| 20260506182849 | 17 | 138 | 6.4 | 80.5 | 12.60 | 2.67 | 0.00 | 47 | 997.0 |
| 20260506182449 | 17 | 145 | 4.8 | 80.5 | 12.60 | 2.72 | 0.00 | 47 | 997.1 |
| 20260506182049 | 18 | 132 | 6.4 | 80.5 | 12.60 | 2.77 | 0.00 | 47 | 997.0 |
| 20260506181649 | 18 | 156 | 6.4 | 80.5 | 12.60 | 2.77 | 0.00 | 47 | 996.9 |
| 20260506181249 | 18 | 115 | 4.8 | 80.5 | 12.60 | 2.77 | 0.00 | 46 | 996.9 |
| 20260506180849 | 18 | 144 | 6.4 | 80.5 | 12.60 | 2.77 | 0.00 | 46 | 996.9 |
| 20260506180449 | 18 | 177 | 4.8 | 80.5 | 12.60 | 2.79 | 0.00 | 46 | 996.9 |
| 20260506180049 | 18 | 115 | 3.2 | 80.5 | 12.70 | 2.79 | 0.00 | 45 | 996.8 |
| 20260506175649 | 18 | 162 | 3.2 | 80.5 | 12.70 | 2.79 | 0.00 | 45 | 996.8 |
| 20260506175249 | 18 | 168 | 4.8 | 80.5 | 12.80 | 2.84 | 0.00 | 45 | 996.8 |
| 20260506174849 | 18 | 123 | 6.4 | 80.5 | 12.80 | 2.90 | 0.00 | 45 | 996.7 |
| 20260506174449 | 20 | 134 | 6.4 | 80.5 | 13.00 | 2.95 | 0.00 | 44 | 996.7 |
| 20260506174049 | 20 | 111 | 8.0 | 80.5 | 13.11 | 3.00 | 0.00 | 44 | 996.7 |
| 20260506173649 | 21 | 145 | 8.0 | 80.5 | 13.21 | 3.02 | 0.00 | 44 | 996.7 |
| 20260506173249 | 21 | 117 | 8.0 | 80.5 | 13.31 | 3.07 | 0.00 | 43 | 996.6 |
| 20260506172849 | 22 | 155 | 11.3 | 80.5 | 13.41 | 3.10 | 0.00 | 43 | 996.6 |
| 20260506172449 | 22 | 173 | 12.9 | 80.5 | 13.41 | 3.12 | 0.00 | 43 | 996.6 |
| 20260506172049 | 22 | 173 | 11.3 | 80.5 | 13.49 | 3.17 | 0.00 | 43 | 996.5 |
| 20260506171649 | 22 | 106 | 6.4 | 80.5 | 13.59 | 3.23 | 0.00 | 43 | 996.6 |
| 20260506171249 | 22 | 177 | 11.3 | 80.5 | 13.79 | 3.28 | 0.00 | 43 | 996.6 |
| 20260506170849 | 22 | 184 | 11.3 | 80.5 | 13.79 | 3.25 | 0.00 | 43 | 996.6 |
| 20260506170449 | 22 | 151 | 12.9 | 80.5 | 13.79 | 3.23 | 0.00 | 43 | 996.6 |
| 20260506170049 | 22 | 155 | 14.5 | 80.5 | 13.79 | 3.28 | 0.00 | 42 | 996.6 |
| 20260506165649 | 23 | 177 | 19.3 | 80.5 | 13.79 | 3.35 | 0.00 | 42 | 996.5 |
| 20260506165249 | 22 | 168 | 14.5 | 80.5 | 13.59 | 3.23 | 0.00 | 42 | 996.5 |
| 20260506164849 | 22 | 179 | 16.1 | 80.5 | 13.69 | 3.28 | 0.00 | 42 | 996.5 |
| 20260506164449 | 25 | 166 | 17.7 | 80.5 | 13.79 | 3.33 | 0.00 | 42 | 996.5 |
| 20260506164049 | 25 | 190 | 20.9 | 80.5 | 13.79 | 3.30 | 0.00 | 42 | 996.5 |
| 20260506163649 | 22 | 183 | 17.7 | 80.5 | 13.79 | 3.25 | 0.00 | 41 | 996.5 |
| 20260506163249 | 22 | 172 | 24.1 | 80.5 | 13.79 | 3.28 | 0.00 | 41 | 996.5 |
| 20260506162849 | 22 | 168 | 17.7 | 80.5 | 13.79 | 3.28 | 0.00 | 41 | 996.5 |
| 20260506162449 | 22 | 144 | 11.3 | 80.5 | 13.79 | 3.30 | 0.00 | 40 | 996.4 |
| 20260506162049 | 22 | 173 | 12.9 | 80.5 | 13.79 | 3.35 | 0.00 | 40 | 996.4 |
| 20260506161649 | 22 | 184 | 24.1 | 80.5 | 13.79 | 3.38 | 0.00 | 39 | 996.4 |
| 20260506161249 | 23 | 207 | 19.3 | 80.5 | 13.79 | 3.40 | 0.00 | 39 | 996.4 |
| 20260506160849 | 23 | 172 | 16.1 | 80.5 | 13.79 | 3.43 | 0.00 | 39 | 996.4 |
| 20260506160449 | 26 | 155 | 16.1 | 80.5 | 13.79 | 3.53 | 0.00 | 39 | 996.4 |
| 20260506160049 | 23 | 179 | 22.5 | 80.5 | 13.79 | 3.43 | 0.00 | 38 | 996.4 |
| 20260506155649 | 23 | 200 | 22.5 | 80.5 | 13.79 | 3.38 | 0.00 | 38 | 996.4 |
| 20260506155249 | 23 | 161 | 11.3 | 80.5 | 13.79 | 3.40 | 0.00 | 37 | 996.4 |
| 20260506154849 | 23 | 161 | 20.9 | 80.5 | 13.79 | 3.48 | 0.00 | 37 | 996.4 |
| 20260506154449 | 26 | 183 | 37.0 | 80.5 | 13.79 | 3.61 | 0.00 | 37 | 996.4 |
| 20260506154049 | 27 | 168 | 17.7 | 80.5 | 13.79 | 3.71 | 0.00 | 36 | 996.4 |
| 20260506153649 | 26 | 172 | 12.9 | 80.5 | 13.79 | 3.58 | 0.00 | 36 | 996.4 |
| 20260506153249 | 27 | 190 | 20.9 | 80.5 | 13.79 | 3.78 | 0.00 | 35 | 996.4 |
| 20260506152849 | 26 | 206 | 38.6 | 80.5 | 13.79 | 3.71 | 0.00 | 35 | 996.4 |
| 20260506152449 | 27 | 184 | 27.4 | 80.5 | 13.79 | 3.76 | 0.00 | 34 | 996.3 |
| 20260506152049 | 27 | 183 | 17.7 | 80.5 | 13.79 | 3.76 | 0.00 | 34 | 996.4 |
| 20260506151649 | 27 | 166 | 20.9 | 80.5 | 13.79 | 3.68 | 0.00 | 33 | 996.3 |
| 20260506151249 | 27 | 179 | 30.6 | 80.5 | 13.79 | 3.61 | 0.00 | 33 | 996.3 |
| 20260506150849 | 28 | 189 | 22.5 | 80.5 | 13.79 | 3.78 | 0.00 | 33 | 996.3 |
| 20260506150449 | 27 | 201 | 16.1 | 80.5 | 13.79 | 3.86 | 0.00 | 34 | 996.3 |
| 20260506150049 | 28 | 161 | 27.4 | 80.5 | 13.79 | 4.19 | 0.00 | 34 | 996.3 |
| 20260506145649 | 28 | 179 | 24.1 | 80.5 | 13.79 | 4.04 | 0.00 | 34 | 996.4 |
| 20260506145249 | 27 | 156 | 27.4 | 80.5 | 13.79 | 4.04 | 0.00 | 34 | 996.4 |
| 20260506144849 | 27 | 172 | 27.4 | 80.5 | 13.79 | 4.14 | 0.00 | 34 | 996.4 |
| 20260506144449 | 28 | 144 | 20.9 | 80.5 | 13.79 | 4.01 | 0.00 | 34 | 996.4 |
| 20260506144049 | 28 | 234 | 25.7 | 80.5 | 13.79 | 4.04 | 0.00 | 34 | 996.4 |
| 20260506143649 | 27 | 149 | 19.3 | 80.5 | 13.79 | 4.14 | 0.00 | 34 | 996.3 |
| 20260506143249 | 27 | 172 | 37.0 | 80.5 | 13.79 | 3.99 | 0.00 | 33 | 996.3 |
| 20260506142849 | 27 | 179 | 30.6 | 80.5 | 13.79 | 3.99 | 0.00 | 34 | 996.4 |
| 20260506142449 | 27 | 218 | 37.0 | 80.5 | 13.79 | 3.76 | 0.00 | 34 | 996.4 |
| 20260506141649 | 27 | 184 | 38.6 | 80.5 | 13.79 | 3.73 | 0.00 | 33 | 996.4 |
| 20260506141249 | 27 | 206 | 17.7 | 80.5 | 13.79 | 3.68 | 0.00 | 34 | 996.4 |
| 20260506140849 | 27 | 166 | 38.6 | 80.5 | 13.79 | 4.06 | 0.00 | 34 | 996.3 |
| 20260506140449 | 28 | 190 | 38.6 | 80.5 | 13.79 | 4.01 | 0.00 | 34 | 996.3 |
| 20260506140049 | 27 | 156 | 16.1 | 80.5 | 13.79 | 3.99 | 0.00 | 34 | 996.3 |
| 20260506135649 | 27 | 173 | 27.4 | 80.5 | 13.79 | 4.11 | 0.00 | 34 | 996.3 |
| 20260506135249 | 27 | 184 | 37.0 | 80.5 | 13.79 | 3.94 | 0.00 | 34 | 996.4 |
| 20260506134849 | 27 | 156 | 43.5 | 80.5 | 13.79 | 3.94 | 0.00 | 33 | 996.4 |
| 20260506134449 | 27 | 173 | 24.1 | 80.5 | 13.79 | 3.78 | 0.00 | 33 | 996.3 |
| 20260506134049 | 27 | 206 | 20.9 | 80.5 | 13.79 | 3.71 | 0.00 | 32 | 996.4 |
| 20260506133649 | 27 | 177 | 35.4 | 80.5 | 13.79 | 3.89 | 0.00 | 32 | 996.4 |
| 20260506133249 | 27 | 156 | 35.4 | 80.5 | 13.79 | 3.89 | 0.00 | 31 | 996.3 |
| 20260506132849 | 27 | 172 | 33.8 | 80.5 | 13.79 | 3.73 | 0.00 | 31 | 996.3 |
| 20260506132449 | 27 | 194 | 38.6 | 80.5 | 13.79 | 3.68 | 0.00 | 32 | 996.3 |
| 20260506132049 | 28 | 151 | 22.5 | 80.5 | 13.79 | 3.84 | 0.00 | 32 | 996.3 |
| 20260506131649 | 27 | 200 | 33.8 | 80.5 | 13.79 | 3.91 | 0.00 | 32 | 996.3 |
| 20260506131249 | 27 | 218 | 25.7 | 80.5 | 13.79 | 4.04 | 0.00 | 33 | 996.3 |
| 20260506130849 | 27 | 172 | 29.0 | 80.5 | 13.79 | 3.94 | 0.00 | 34 | 996.4 |
| 20260506130449 | 27 | 190 | 27.4 | 80.5 | 13.79 | 3.94 | 0.00 | 34 | 996.3 |
| 20260506130049 | 27 | 190 | 24.1 | 80.5 | 13.79 | 3.94 | 0.00 | 34 | 996.4 |
| 20260506125649 | 27 | 95 | 29.0 | 80.5 | 13.79 | 4.11 | 0.00 | 35 | 996.4 |
| 20260506125249 | 27 | 184 | 33.8 | 80.5 | 13.79 | 3.94 | 0.00 | 36 | 996.4 |
| 20260506124849 | 27 | 179 | 24.1 | 80.5 | 13.79 | 3.91 | 0.00 | 36 | 996.3 |
| 20260506124449 | 28 | 190 | 37.0 | 80.5 | 13.79 | 3.91 | 0.00 | 37 | 996.3 |
| 20260506124049 | 28 | 161 | 32.2 | 80.5 | 13.79 | 3.96 | 0.00 | 38 | 996.4 |
| 20260506123649 | 28 | 207 | 27.4 | 80.5 | 13.79 | 3.99 | 0.00 | 39 | 996.4 |
| 20260506123249 | 27 | 156 | 32.2 | 80.5 | 13.79 | 3.91 | 0.00 | 40 | 996.4 |
| 20260506122849 | 27 | 177 | 33.8 | 80.5 | 13.79 | 4.04 | 0.00 | 41 | 996.4 |
| 20260506122449 | 28 | 161 | 25.7 | 80.5 | 13.79 | 4.06 | 0.00 | 42 | 996.4 |
| 20260506122049 | 27 | 194 | 27.4 | 80.5 | 13.79 | 4.01 | 0.00 | 42 | 996.4 |
| 20260506121649 | 28 | 161 | 24.1 | 80.5 | 13.79 | 3.96 | 0.00 | 41 | 996.5 |
| 20260506121249 | 27 | 155 | 32.2 | 80.5 | 13.79 | 3.94 | 0.00 | 41 | 996.6 |
| 20260506120849 | 27 | 156 | 20.9 | 80.5 | 13.79 | 3.94 | 0.00 | 41 | 996.6 |
| 20260506120448 | 28 | 151 | 17.7 | 80.5 | 13.79 | 3.86 | 0.00 | 41 | 996.6 |
| 20260506120048 | 27 | 128 | 20.9 | 80.5 | 13.79 | 3.84 | 0.00 | 41 | 996.6 |
| 20260506115649 | 27 | 156 | 27.4 | 80.5 | 13.79 | 3.81 | 0.00 | 40 | 996.7 |
| 20260506115249 | 27 | 183 | 37.0 | 80.5 | 13.79 | 3.76 | 0.00 | 40 | 996.7 |
| 20260506114849 | 27 | 206 | 61.2 | 80.5 | 13.79 | 3.68 | 0.00 | 41 | 996.7 |
| 20260506114448 | 28 | 134 | 17.7 | 80.5 | 13.79 | 3.86 | 0.00 | 41 | 996.7 |
| 20260506114048 | 27 | 173 | 43.5 | 80.5 | 13.79 | 3.76 | 0.00 | 41 | 996.7 |
| 20260506113649 | 27 | 155 | 38.6 | 80.5 | 13.79 | 3.76 | 0.00 | 41 | 996.7 |
| 20260506113248 | 27 | 183 | 27.4 | 80.5 | 13.79 | 3.78 | 0.00 | 41 | 996.6 |
| 20260506112849 | 27 | 151 | 17.7 | 80.5 | 13.79 | 3.81 | 0.00 | 41 | 996.6 |
| 20260506112448 | 27 | 168 | 35.4 | 80.5 | 13.79 | 3.71 | 0.00 | 41 | 996.7 |
| 20260506112049 | 27 | 156 | 35.4 | 80.5 | 13.79 | 3.73 | 0.00 | 41 | 996.6 |
| 20260506111648 | 27 | 224 | 43.5 | 80.5 | 13.79 | 3.73 | 0.00 | 41 | 996.7 |
| 20260506111249 | 27 | 151 | 56.3 | 80.5 | 13.79 | 3.78 | 0.00 | 41 | 996.7 |
| 20260506110848 | 27 | 161 | 25.7 | 80.5 | 13.79 | 3.78 | 0.00 | 41 | 996.7 |
| 20260506110448 | 27 | 149 | 32.2 | 80.5 | 13.79 | 3.81 | 0.00 | 41 | 996.6 |
| 20260506110048 | 27 | 162 | 14.5 | 80.5 | 13.79 | 3.78 | 0.00 | 41 | 996.7 |
| 20260506105649 | 27 | 161 | 27.4 | 80.5 | 13.79 | 3.78 | 0.00 | 41 | 996.6 |
| 20260506105249 | 27 | 179 | 43.5 | 80.5 | 13.79 | 3.76 | 0.00 | 41 | 996.7 |
| 20260506104849 | 27 | 161 | 29.0 | 80.5 | 13.79 | 3.76 | 0.00 | 40 | 996.7 |
| 20260506104449 | 27 | 196 | 32.2 | 80.5 | 13.79 | 3.76 | 0.00 | 41 | 996.7 |
| 20260506104048 | 27 | 184 | 29.0 | 80.5 | 13.79 | 3.78 | 0.00 | 41 | 996.7 |
| 20260506103648 | 26 | 145 | 30.6 | 80.5 | 13.79 | 3.68 | 0.00 | 41 | 996.7 |
| 20260506103249 | 27 | 184 | 32.2 | 80.5 | 13.79 | 3.71 | 0.00 | 41 | 996.7 |
| 20260506102848 | 27 | 189 | 45.1 | 80.5 | 13.79 | 3.76 | 0.00 | 41 | 996.7 |
| 20260506102448 | 27 | 173 | 41.8 | 80.5 | 13.79 | 3.78 | 0.00 | 41 | 996.6 |
| 20260506102048 | 27 | 134 | 53.1 | 80.5 | 13.79 | 3.84 | 0.00 | 41 | 996.6 |
| 20260506101648 | 26 | 9 | 33.8 | 80.5 | 13.79 | 3.76 | 0.00 | 42 | 996.6 |
| 20260506101248 | 27 | 173 | 25.7 | 80.5 | 13.79 | 3.76 | 0.00 | 42 | 996.7 |
| 20260506100848 | 27 | 145 | 30.6 | 80.5 | 13.79 | 3.81 | 0.00 | 42 | 996.7 |
| 20260506100449 | 27 | 190 | 51.5 | 80.5 | 13.79 | 3.73 | 0.00 | 43 | 996.7 |
| 20260506100049 | 25 | 156 | 37.0 | 80.5 | 13.79 | 3.68 | 0.00 | 43 | 996.7 |
| 20260506095648 | 25 | 161 | 43.5 | 80.5 | 13.79 | 3.71 | 0.00 | 43 | 996.7 |
| 20260506095248 | 26 | 194 | 45.1 | 80.5 | 13.79 | 3.58 | 0.00 | 42 | 996.7 |
| 20260506094849 | 23 | 145 | 51.5 | 80.5 | 13.79 | 3.38 | 0.00 | 42 | 996.7 |
| 20260506094448 | 22 | 194 | 53.1 | 80.5 | 13.79 | 3.38 | 0.00 | 43 | 996.7 |
| 20260506094049 | 23 | 179 | 37.0 | 80.5 | 13.79 | 3.40 | 0.00 | 43 | 996.7 |
| 20260506093649 | 23 | 196 | 29.0 | 80.5 | 13.79 | 3.43 | 0.00 | 43 | 996.7 |
| 20260506092849 | 22 | 190 | 24.1 | 80.5 | 13.79 | 3.40 | 0.00 | 42 | 996.7 |
| 20260506092449 | 22 | 173 | 37.0 | 80.5 | 13.79 | 3.45 | 0.00 | 42 | 996.7 |
| 20260506092049 | 23 | 151 | 19.3 | 80.5 | 13.79 | 3.51 | 0.00 | 42 | 996.7 |
| 20260506091649 | 22 | 166 | 30.6 | 80.5 | 13.79 | 3.48 | 0.00 | 42 | 996.6 |
| 20260506091248 | 22 | 161 | 25.7 | 80.5 | 13.79 | 3.43 | 0.00 | 41 | 996.7 |
| 20260506090849 | 22 | 134 | 46.7 | 80.5 | 13.79 | 3.43 | 0.00 | 41 | 996.7 |
| 20260506090448 | 22 | 168 | 41.8 | 80.5 | 13.79 | 3.45 | 0.00 | 41 | 996.7 |
| 20260506085648 | 23 | 156 | 22.5 | 80.5 | 13.79 | 3.53 | 0.00 | 41 | 996.8 |
| 20260506085248 | 25 | 172 | 22.5 | 80.5 | 13.79 | 3.61 | 0.00 | 42 | 996.8 |
| 20260506084848 | 25 | 156 | 45.1 | 80.5 | 13.79 | 3.66 | 0.00 | 43 | 996.7 |
| 20260506084448 | 27 | 151 | 24.1 | 80.5 | 13.79 | 3.78 | 0.00 | 42 | 996.7 |
| 20260506084048 | 27 | 106 | 27.4 | 80.5 | 13.79 | 3.56 | 0.00 | 41 | 996.8 |
| 20260506083649 | 22 | 156 | 29.0 | 80.5 | 13.79 | 3.33 | 0.00 | 40 | 996.8 |
| 20260506083248 | 22 | 155 | 43.5 | 80.5 | 13.79 | 3.38 | 0.00 | 41 | 996.7 |
| 20260506082848 | 25 | 161 | 45.1 | 80.5 | 13.79 | 3.58 | 0.00 | 41 | 996.7 |
| 20260506082448 | 25 | 155 | 37.0 | 80.5 | 13.79 | 3.56 | 0.00 | 41 | 996.7 |
| 20260506082048 | 26 | 128 | 22.5 | 80.5 | 13.79 | 3.58 | 0.00 | 40 | 996.7 |
| 20260506081649 | 23 | 168 | 19.3 | 80.5 | 13.79 | 3.48 | 0.00 | 40 | 996.8 |
| 20260506081248 | 23 | 121 | 33.8 | 80.5 | 13.79 | 3.43 | 0.00 | 40 | 996.8 |
| 20260506080848 | 25 | 145 | 17.7 | 80.5 | 13.79 | 3.63 | 0.00 | 41 | 996.8 |
| 20260506080448 | 27 | 156 | 33.8 | 80.5 | 13.79 | 3.68 | 0.00 | 41 | 996.8 |
| 20260506073248 | 26 | 173 | 27.4 | 80.5 | 13.79 | 3.53 | 0.00 | 41 | 996.8 |
| 20260506072848 | 26 | 173 | 27.4 | 80.5 | 13.79 | 3.51 | 0.00 | 41 | 996.8 |
| 20260506072448 | 25 | 200 | 32.2 | 80.5 | 13.79 | 3.48 | 0.00 | 42 | 996.8 |
| 20260506072048 | 26 | 161 | 40.2 | 80.5 | 13.79 | 3.48 | 0.00 | 42 | 996.8 |
| 20260506071648 | 26 | 144 | 14.5 | 80.5 | 13.79 | 3.48 | 0.00 | 42 | 996.8 |
| 20260506071248 | 26 | 156 | 17.7 | 80.5 | 13.79 | 3.45 | 0.00 | 42 | 996.8 |
| 20260506070448 | 23 | 162 | 45.1 | 80.5 | 13.79 | 3.38 | 0.00 | 42 | 996.8 |
| 20260506062448 | 22 | 134 | 29.0 | 80.5 | 13.79 | 3.20 | 0.00 | 43 | 996.9 |
| 20260506062048 | 22 | 117 | 20.9 | 80.5 | 13.79 | 3.20 | 0.00 | 43 | 996.9 |
| 20260506061648 | 22 | 111 | 27.4 | 80.5 | 13.79 | 3.20 | 0.00 | 42 | 996.9 |
| 20260506061248 | 22 | 172 | 24.1 | 80.5 | 13.79 | 3.12 | 0.00 | 43 | 996.9 |
| 20260506060848 | 22 | 111 | 22.5 | 80.5 | 13.79 | 3.20 | 0.00 | 43 | 997.0 |
| 20260506060448 | 23 | 179 | 11.3 | 80.5 | 13.79 | 3.33 | 0.00 | 43 | 997.0 |
| 20260506051248 | 20 | 128 | 8.0 | 80.5 | 13.79 | 3.05 | 0.00 | 47 | 997.2 |
| 20260506050848 | 18 | 100 | 11.3 | 80.5 | 13.79 | 3.20 | 0.00 | 47 | 997.2 |
| 20260506050448 | 18 | 166 | 11.3 | 80.5 | 13.79 | 3.15 | 0.00 | 46 | 997.2 |
| 20260506044848 | 18 | 111 | 6.4 | 80.5 | 13.79 | 3.10 | 0.00 | 49 | 997.3 |
| 20260506044448 | 17 | 149 | 9.7 | 80.5 | 13.79 | 3.10 | 0.00 | 49 | 997.3 |
| 20260506044048 | 17 | 104 | 11.3 | 80.5 | 13.79 | 3.12 | 0.00 | 50 | 997.2 |
| 20260506043648 | 17 | 111 | 8.0 | 80.5 | 13.69 | 3.05 | 0.00 | 52 | 997.3 |
| 20260506043248 | 17 | 123 | 8.0 | 80.5 | 13.69 | 3.07 | 0.00 | 53 | 997.4 |
| 20260506042848 | 17 | 145 | 3.2 | 80.5 | 13.59 | 3.20 | 0.00 | 55 | 997.4 |
| 20260506042448 | 17 | 121 | 4.8 | 80.5 | 13.59 | 3.20 | 0.00 | 56 | 997.4 |
| 20260506042048 | 16 | 144 | 4.8 | 80.5 | 13.49 | 3.12 | 0.00 | 57 | 997.4 |
| 20260506041648 | 16 | 138 | 6.4 | 80.5 | 13.49 | 3.05 | 0.00 | 58 | 997.4 |
| 20260506041248 | 15 | 145 | 4.8 | 80.5 | 13.41 | 3.00 | 0.00 | 59 | 997.4 |
| 20260506040848 | 15 | 149 | 6.4 | 80.5 | 13.41 | 2.90 | 0.00 | 60 | 997.4 |
| 20260506040048 | 13 | 156 | 8.0 | 80.5 | 13.31 | 2.79 | 0.00 | 61 | 997.4 |
| 20260506035648 | 13 | 139 | 8.0 | 80.5 | 13.21 | 2.82 | 0.00 | 61 | 997.3 |
| 20260506035248 | 13 | 111 | 6.4 | 80.5 | 13.21 | 2.82 | 0.00 | 61 | 997.3 |
| 20260506034848 | 13 | 177 | 8.0 | 80.5 | 13.11 | 2.64 | 0.00 | 61 | 997.3 |
| 20260506034448 | 13 | 151 | 9.7 | 80.5 | 13.11 | 2.51 | 0.00 | 61 | 997.3 |
| 20260506034048 | 13 | 155 | 8.0 | 80.5 | 13.00 | 2.44 | 0.00 | 61 | 997.4 |
| 20260506033648 | 13 | 177 | 8.0 | 80.5 | 12.90 | 2.49 | 0.00 | 61 | 997.4 |
| 20260506033248 | 13 | 123 | 11.3 | 80.5 | 12.80 | 2.44 | 0.00 | 61 | 997.3 |
| 20260506032848 | 13 | 121 | 4.8 | 80.5 | 12.70 | 2.36 | 0.00 | 61 | 997.3 |
| 20260506032448 | 12 | 156 | 6.4 | 80.5 | 12.60 | 2.34 | 0.00 | 60 | 997.4 |
| 20260506032048 | 12 | 151 | 6.4 | 80.5 | 12.60 | 2.29 | 0.00 | 60 | 997.4 |
| 20260506031648 | 12 | 184 | 6.4 | 80.5 | 12.50 | 2.24 | 0.00 | 60 | 997.4 |
| 20260506031248 | 12 | 156 | 8.0 | 80.5 | 12.50 | 2.18 | 0.00 | 60 | 997.5 |
| 20260506030848 | 12 | 144 | 11.3 | 80.5 | 12.50 | 2.18 | 0.00 | 60 | 997.5 |
| 20260506030448 | 12 | 144 | 9.7 | 80.5 | 12.50 | 2.18 | 0.00 | 60 | 997.5 |
| 20260506030048 | 12 | 177 | 9.7 | 80.5 | 12.50 | 2.13 | 0.00 | 60 | 997.5 |
| 20260506025648 | 12 | 132 | 9.7 | 80.5 | 12.40 | 2.18 | 0.00 | 60 | 997.5 |
| 20260506025248 | 12 | 177 | 9.7 | 80.5 | 12.40 | 2.18 | 0.00 | 60 | 997.5 |
| 20260506024848 | 12 | 183 | 6.4 | 80.5 | 12.40 | 2.16 | 0.00 | 60 | 997.5 |
| 20260506024448 | 12 | 145 | 9.7 | 80.5 | 12.40 | 2.16 | 0.00 | 60 | 997.5 |
| 20260506024048 | 12 | 161 | 6.4 | 80.5 | 12.40 | 2.16 | 0.00 | 59 | 997.5 |
| 20260506023648 | 12 | 162 | 12.9 | 80.5 | 12.40 | 2.16 | 0.00 | 59 | 997.5 |
| 20260506023248 | 13 | 128 | 9.7 | 80.5 | 12.40 | 2.24 | 0.00 | 59 | 997.4 |
| 20260506022848 | 13 | 166 | 14.5 | 80.5 | 12.40 | 2.26 | 0.00 | 59 | 997.5 |
| 20260506022448 | 13 | 145 | 9.7 | 80.5 | 12.40 | 2.24 | 0.00 | 59 | 997.4 |
| 20260506022048 | 13 | 173 | 11.3 | 80.5 | 12.50 | 2.21 | 0.00 | 59 | 997.4 |
| 20260506021648 | 13 | 162 | 11.3 | 80.5 | 12.40 | 2.24 | 0.00 | 59 | 997.5 |
| 20260506021248 | 12 | 194 | 16.1 | 80.5 | 12.50 | 2.18 | 0.00 | 59 | 997.5 |
| 20260506020848 | 12 | 179 | 8.0 | 80.5 | 12.50 | 2.16 | 0.00 | 59 | 997.5 |
| 20260506020448 | 12 | 173 | 9.7 | 80.5 | 12.50 | 2.18 | 0.00 | 59 | 997.5 |
| 20260506020048 | 12 | 190 | 8.0 | 80.5 | 12.50 | 2.18 | 0.00 | 58 | 997.5 |
| 20260506015648 | 12 | 194 | 11.3 | 80.5 | 12.50 | 2.24 | 0.00 | 58 | 997.5 |
| 20260506015248 | 12 | 196 | 12.9 | 80.5 | 12.50 | 2.21 | 0.00 | 58 | 997.5 |
| 20260506014848 | 12 | 190 | 11.3 | 80.5 | 12.50 | 2.24 | 0.00 | 58 | 997.6 |
| 20260506014448 | 12 | 194 | 11.3 | 80.5 | 12.50 | 2.21 | 0.00 | 58 | 997.6 |
| 20260506014048 | 12 | 184 | 9.7 | 80.5 | 12.50 | 2.24 | 0.00 | 58 | 997.5 |
| 20260506013648 | 12 | 184 | 11.3 | 80.5 | 12.50 | 2.29 | 0.00 | 58 | 997.6 |
| 20260506013248 | 13 | 177 | 16.1 | 80.5 | 12.50 | 2.31 | 0.00 | 58 | 997.6 |
| 20260506012848 | 13 | 190 | 14.5 | 80.5 | 12.50 | 2.31 | 0.00 | 58 | 997.6 |
| 20260506012448 | 13 | 173 | 11.3 | 80.5 | 12.50 | 2.31 | 0.00 | 58 | 997.5 |
| 20260506012048 | 13 | 166 | 11.3 | 80.5 | 12.50 | 2.34 | 0.00 | 59 | 997.5 |
| 20260506011648 | 13 | 190 | 11.3 | 80.5 | 12.50 | 2.31 | 0.00 | 59 | 997.5 |
| 20260506011248 | 13 | 234 | 12.9 | 80.5 | 12.50 | 2.34 | 0.00 | 59 | 997.6 |
| 20260506010849 | 13 | 168 | 17.7 | 80.5 | 12.50 | 2.29 | 0.00 | 59 | 997.5 |
| 20260506010448 | 13 | 145 | 6.4 | 80.5 | 12.50 | 2.29 | 0.00 | 59 | 997.5 |
| 20260506010048 | 13 | 166 | 14.5 | 80.5 | 12.50 | 2.29 | 0.00 | 59 | 997.5 |
| 20260506005648 | 13 | 172 | 11.3 | 80.5 | 12.50 | 2.26 | 0.00 | 59 | 997.6 |
| 20260506005248 | 13 | 156 | 14.5 | 80.5 | 12.50 | 2.26 | 0.00 | 59 | 997.6 |
| 20260506004848 | 13 | 184 | 11.3 | 80.5 | 12.50 | 2.26 | 0.00 | 59 | 997.5 |